Starlink 31521

operational
NORAD ID: 59015 Int'l Des: 2024-036 Owner: SPXS Country: US Constellation: starlink
LEOCIRCULAR

Über Starlink 31521

Beschreibung wird geladen...

Live-Position

3D-Globus wird geladen...

Nächste Überflüge

Höhenverlauf

Altitude vs Time

uPlot chart will show altitude changes over time

Zweizeiliger Elementsatz

1 59015U 24036T 25303.34939842 .00005383 00000-0 19380-3 0 9993
2 59015 53.1600 323.8199 0002006 131.1896 228.9279 15.30194048 95366
Epoch: 30. Okt. 2025 • Age: 22 hours

Aktueller Status

Höhe 480.4 km
Geschwindigkeit 7.63 km/s
Subsatellitenpunkt 50.49°N, 115.5°W
Startdatum 23. Feb. 2024
Alter 1.6 years
Typ internet

Technische Details

Klassifizierung Payload
Masse 730.00 kg
Trockenmasse 700.00 kg
Gesamtmasse 730.00 kg
Länge 0.30 m
Durchmesser 4.10 m
Spannweite 29.00 m
Form Box + pan
Hersteller SPXS
Bus-Typ Starlink V2M
Phasenstatus In Orbit
Besitzer/Staat SPXS/US

Große Konstellationen

Loading constellations...